Orbital Elements
Epoch 2011 Aug. 27.0 TT = JDT 2455800.5
T 2011 Aug. 10.50249 TT MPC
q 1.9238402 (2000.0) P Q
z -0.0000413 Peri. 27.72809 +0.56049624 -0.24965065
+/-0.0000068 Node 307.75516 -0.81377585 +0.01088922
e 1.0000794 Incl. 87.11431 +0.15366469 +0.96827474
From 666 observations 2011 June 3-Nov. 24, mean residual 0".6.
|